Thompson, UT

5:54 AM MST on December 04, 2016 (GMT -0700)
Canyonlands

Weather History for KCNY - December, 2012

Change the Weather History Date:

Sunday, December 2, 2012

  Actual Average Record
Temperature  
Mean Temperature 47 °F 31 °F  
Max Temperature 61 °F 41 °F 64 °F (1977)
Min Temperature 32 °F 20 °F 10 °F (2004)
Degree Days  
Heating Degree Days 18 34  
Month to date heating degree days 37 68  
Since 1 July heating degree days 1081 1277  
Cooling Degree Days 0 0  
Month to date cooling degree days 0 0  
Year to date cooling degree days 1513 1289  
Moisture  
Dew Point 29 °F    
Average Humidity 47    
Maximum Humidity 64    
Minimum Humidity 29    
Precipitation  
Precipitation 0.00 in 0.01 in 0.85 in (1978)
Month to date precipitation 0.00 0.03  
Year to date precipitation 2.66 8.23  
Sea Level Pressure  
Sea Level Pressure 29.92 in    
Wind  
Wind Speed 9 mph (SSW)    
Max Wind Speed 25 mph    
Max Gust Speed 32 mph    
Visibility 10 miles    
Events      
T = Trace of Precipitation, MM = Missing Value Source: NWS Daily Summary

Daily Weather History Graph

Daily Weather History Graph

Search for Another Location

Airport or City:

Trip Planner

Search our weather history database for the weather conditions in past years. The results will help you decide how hot, cold, wet, or windy it might be!

Date:

Astronomy

Dec. 02, 2012 Rise Set
Actual Time 7:19 AM MST 4:57 PM MST
Civil Twilight 6:50 AM MST 5:26 PM MST
Nautical Twilight 6:17 AM MST 6:00 PM MST
Astronomical Twilight 5:45 AM MST 6:32 PM MST
Moon 8:47 PM MST (12/2) 10:12 AM MST (12/2)
Length of Visible Light 10h 36m
Length of Day
9h 37m
Waning Gibbous, 85% of the Moon is Illuminated
Dec 2
Waning Gibbous
Dec 6
Last Quarter
Dec 13
New
Dec 19
First Quarter
Dec 28
Full

Hourly Weather History & Observations

Time (MST) Temp. Windchill Dew Point Humidity Pressure Visibility Wind Dir Wind Speed Gust Speed Precip Events Conditions
12:53 AM 35.1 °F - 24.1 °F 64% 30.04 in 10.0 mi Calm Calm - N/A   Clear
1:53 AM 39.9 °F - 27.0 °F 60% 30.01 in 10.0 mi Calm Calm - N/A   Clear
2:53 AM 37.0 °F - 25.0 °F 62% 30.03 in 10.0 mi Calm Calm - N/A   Clear
3:53 AM 39.0 °F - 26.1 °F 60% 30.01 in 10.0 mi Calm Calm - N/A   Clear
4:53 AM 43.0 °F - 28.0 °F 56% 30.01 in 10.0 mi Calm Calm - N/A   Clear
5:53 AM 39.9 °F - 28.0 °F 63% 30.03 in 10.0 mi Calm Calm - N/A   Clear
6:53 AM 39.9 °F - 27.0 °F 60% 30.03 in 10.0 mi Calm Calm - N/A   Clear
7:53 AM 42.1 °F 40.2 °F 27.0 °F 55% 30.04 in 10.0 mi ENE 3.5 mph - N/A   Clear
8:53 AM 43.0 °F - 27.0 °F 53% 30.06 in 10.0 mi Calm Calm - N/A   Clear
9:53 AM 51.1 °F - 28.0 °F 41% 30.02 in 10.0 mi SE 8.1 mph - N/A   Clear
10:53 AM 55.9 °F - 28.0 °F 34% 29.98 in 10.0 mi SSE 15.0 mph - N/A   Clear
11:53 AM 57.9 °F - 28.9 °F 33% 29.95 in 10.0 mi South 9.2 mph - N/A   Clear
12:53 PM 60.1 °F - 30.0 °F 32% 29.90 in 10.0 mi SSW 18.4 mph 26.5 mph N/A   Clear
1:53 PM 61.0 °F - 28.9 °F 30% 29.84 in 10.0 mi SSW 17.3 mph 27.6 mph N/A   Clear
2:53 PM 59.0 °F - 30.0 °F 33% 29.84 in 10.0 mi SW 23.0 mph 27.6 mph N/A   Clear
3:53 PM 57.9 °F - 30.9 °F 36% 29.85 in 10.0 mi SSW 16.1 mph - N/A   Clear
4:53 PM 55.9 °F - 30.9 °F 39% 29.85 in 10.0 mi SSW 10.4 mph - N/A   Scattered Clouds
5:53 PM 54.0 °F - 30.9 °F 41% 29.86 in 10.0 mi SW 4.6 mph - N/A   Clear
6:53 PM 57.0 °F - 32.0 °F 39% 29.83 in 10.0 mi South 13.8 mph 24.2 mph N/A   Overcast
7:53 PM 57.9 °F - 32.0 °F 37% 29.82 in 10.0 mi South 16.1 mph - N/A   Mostly Cloudy
8:53 PM 57.9 °F - 32.0 °F 37% 29.81 in 10.0 mi SSW 15.0 mph 24.2 mph N/A   Overcast
9:53 PM 57.0 °F - 32.0 °F 39% 29.79 in 10.0 mi SSW 13.8 mph - N/A   Scattered Clouds
10:53 PM 55.0 °F - 32.0 °F 42% 29.79 in 10.0 mi SSW 9.2 mph - N/A   Partly Cloudy
11:53 PM 51.1 °F - 32.0 °F 48% 29.80 in 10.0 mi SSW 10.4 mph - N/A   Clear